| time (UTC) | temp F | wind direction | speed MPH | gust MPH | rain 1hr in | rain 24hr in | rain mn in | humidity % | barometer mb |
| 20260504070402 | 71 | 98 | 0.0 | 0.0 | 0.00 | 0.01 | 0.00 | 76 | 1017.4 |
| 20260504050559 | 71 | 87 | 0.0 | 0.0 | 0.00 | 0.07 | 0.00 | 77 | 1017.9 |
| 20260504045833 | 71 | 77 | 0.0 | 0.0 | 0.00 | 0.07 | 0.00 | 77 | 1017.7 |
| 20260504045552 | 71 | 98 | 0.0 | 0.0 | 0.00 | 0.07 | 0.00 | 77 | 1017.8 |
| 20260504044826 | 71 | 98 | 0.0 | 0.0 | 0.00 | 0.07 | 0.00 | 76 | 1017.8 |
| 20260504044320 | 71 | 79 | 0.0 | 0.0 | 0.00 | 0.07 | 0.00 | 76 | 1017.9 |
| 20260504043821 | 72 | 84 | 0.0 | 0.0 | 0.00 | 0.07 | 0.00 | 76 | 1017.9 |
| 20260504043551 | 72 | 81 | 0.0 | 0.0 | 0.00 | 0.07 | 0.00 | 76 | 1017.9 |
| 20260504043049 | 72 | 88 | 0.0 | 0.0 | 0.00 | 0.07 | 0.00 | 75 | 1017.8 |
| 20260504042547 | 72 | 79 | 0.0 | 0.0 | 0.00 | 0.07 | 0.00 | 75 | 1017.9 |
| 20260504041820 | 72 | 105 | 0.0 | 0.0 | 0.00 | 0.07 | 0.00 | 75 | 1018.0 |
| 20260504041317 | 72 | 79 | 0.0 | 0.0 | 0.00 | 0.07 | 0.00 | 75 | 1018.1 |
| 20260504040817 | 72 | 101 | 0.0 | 0.0 | 0.00 | 0.07 | 0.00 | 75 | 1018.2 |
| 20260504040318 | 72 | 141 | 0.0 | 0.0 | 0.00 | 0.07 | 0.00 | 75 | 1018.2 |
| 20260504035815 | 72 | 82 | 0.0 | 0.0 | 0.00 | 0.07 | 0.07 | 74 | 1018.3 |
| 20260504035314 | 73 | 93 | 0.0 | 0.0 | 0.00 | 0.07 | 0.07 | 74 | 1018.5 |
| 20260504034815 | 73 | 74 | 0.0 | 0.0 | 0.00 | 0.07 | 0.07 | 74 | 1018.3 |
| 20260504034319 | 73 | 79 | 0.0 | 0.0 | 0.00 | 0.07 | 0.07 | 74 | 1018.3 |
| 20260504033813 | 73 | 98 | 0.0 | 0.0 | 0.00 | 0.07 | 0.07 | 74 | 1018.3 |
| 20260504033259 | 73 | 150 | 0.0 | 0.0 | 0.00 | 0.07 | 0.07 | 73 | 1018.3 |
| 20260504032753 | 73 | 302 | 0.0 | 0.0 | 0.00 | 0.07 | 0.07 | 74 | 1018.3 |
| 20260504032247 | 73 | 114 | 0.0 | 0.0 | 0.00 | 0.07 | 0.07 | 74 | 1018.4 |
| 20260504031733 | 73 | 105 | 0.0 | 0.0 | 0.00 | 0.08 | 0.07 | 73 | 1018.2 |
| 20260504031710 | 73 | 86 | 0.0 | 0.0 | 0.00 | 0.09 | 0.07 | 73 | 1018.3 |
| 20260504030721 | 74 | 67 | 0.0 | 1.0 | 0.00 | 0.09 | 0.07 | 73 | 1018.2 |
| 20260504030207 | 74 | 91 | 0.0 | 0.0 | 0.00 | 0.09 | 0.07 | 73 | 1018.2 |
| 20260504025701 | 74 | 85 | 0.0 | 0.0 | 0.00 | 0.09 | 0.07 | 73 | 1018.1 |
| 20260504025419 | 74 | 86 | 0.0 | 0.0 | 0.00 | 0.09 | 0.07 | 73 | 1018.1 |
| 20260504024640 | 74 | 115 | 0.0 | 0.0 | 0.00 | 0.09 | 0.07 | 73 | 1018.2 |
| 20260504024135 | 74 | 93 | 0.0 | 0.0 | 0.00 | 0.09 | 0.07 | 73 | 1018.1 |
| 20260504023855 | 74 | 97 | 0.0 | 0.0 | 0.00 | 0.09 | 0.07 | 73 | 1018.1 |
| 20260504023114 | 74 | 94 | 0.0 | 0.0 | 0.00 | 0.10 | 0.07 | 72 | 1017.9 |
| 20260504022608 | 74 | 91 | 0.0 | 0.0 | 0.00 | 0.10 | 0.07 | 72 | 1017.8 |
| 20260504022103 | 73 | 79 | 0.0 | 0.0 | 0.00 | 0.11 | 0.07 | 69 | 1017.7 |
| 20260504021549 | 73 | 340 | 0.0 | 0.0 | 0.00 | 0.11 | 0.07 | 70 | 1017.6 |
| 20260504021043 | 73 | 338 | 0.0 | 0.0 | 0.00 | 0.11 | 0.07 | 69 | 1017.6 |
| 20260504020538 | 73 | 337 | 0.0 | 0.0 | 0.00 | 0.11 | 0.07 | 70 | 1017.5 |
| 20260504020028 | 73 | 9 | 0.0 | 0.0 | 0.00 | 0.11 | 0.07 | 69 | 1017.4 |
| 20260504015521 | 73 | 35 | 0.0 | 0.0 | 0.00 | 0.11 | 0.07 | 69 | 1017.1 |
| 20260504015015 | 73 | 64 | 0.0 | 0.0 | 0.00 | 0.11 | 0.07 | 69 | 1017.3 |
| 20260504014501 | 73 | 64 | 0.0 | 0.0 | 0.00 | 0.11 | 0.07 | 69 | 1017.1 |
| 20260504013955 | 73 | 64 | 0.0 | 0.0 | 0.00 | 0.11 | 0.07 | 69 | 1017.1 |
| 20260504013449 | 73 | 64 | 0.0 | 0.0 | 0.00 | 0.11 | 0.07 | 69 | 1017.1 |
| 20260504012934 | 73 | 64 | 0.0 | 0.0 | 0.00 | 0.11 | 0.07 | 69 | 1017.1 |
| 20260504012429 | 73 | 62 | 0.0 | 0.0 | 0.00 | 0.11 | 0.07 | 69 | 1017.0 |
| 20260504011923 | 73 | 85 | 0.0 | 0.0 | 0.00 | 0.11 | 0.07 | 69 | 1016.8 |
| 20260504011414 | 73 | 86 | 0.0 | 0.0 | 0.00 | 0.11 | 0.07 | 69 | 1016.8 |
| 20260504010900 | 73 | 46 | 0.0 | 0.0 | 0.00 | 0.11 | 0.07 | 69 | 1016.8 |
| 20260504010403 | 73 | 46 | 0.0 | 0.0 | 0.00 | 0.11 | 0.07 | 69 | 1016.7 |
| 20260504005840 | 73 | 304 | 0.0 | 0.0 | 0.00 | 0.11 | 0.07 | 69 | 1016.6 |
| 20260504005553 | 74 | 16 | 0.0 | 0.0 | 0.00 | 0.11 | 0.07 | 70 | 1016.5 |
| 20260504004828 | 73 | 261 | 0.0 | 0.0 | 0.00 | 0.11 | 0.07 | 69 | 1016.5 |
| 20260504004314 | 74 | 202 | 0.0 | 0.0 | 0.00 | 0.11 | 0.07 | 70 | 1016.5 |
| 20260504003808 | 74 | 314 | 0.0 | 0.0 | 0.00 | 0.11 | 0.07 | 69 | 1016.5 |
| 20260504003302 | 74 | 313 | 0.0 | 0.0 | 0.00 | 0.11 | 0.07 | 70 | 1016.6 |
| 20260504002803 | 74 | 97 | 0.0 | 0.0 | 0.00 | 0.11 | 0.07 | 69 | 1016.5 |
| 20260504002303 | 74 | 26 | 0.0 | 0.0 | 0.00 | 0.11 | 0.07 | 69 | 1016.4 |
| 20260504001802 | 74 | 54 | 0.0 | 1.0 | 0.00 | 0.11 | 0.07 | 68 | 1016.3 |
| 20260504001301 | 74 | 318 | 0.0 | 1.0 | 0.00 | 0.11 | 0.07 | 69 | 1016.2 |
| 20260504000859 | 74 | 311 | 0.0 | 0.0 | 0.00 | 0.11 | 0.07 | 68 | 1016.2 |
| 20260503235805 | 75 | 6 | 0.0 | 1.0 | 0.00 | 0.11 | 0.07 | 67 | 1016.2 |
| 20260503235536 | 75 | 341 | 0.0 | 2.0 | 0.00 | 0.11 | 0.07 | 67 | 1016.1 |
| 20260503234805 | 76 | 17 | 1.0 | 6.0 | 0.00 | 0.11 | 0.07 | 66 | 1015.9 |
| 20260503234301 | 76 | 62 | 1.0 | 6.0 | 0.00 | 0.11 | 0.07 | 66 | 1015.9 |
| 20260503233801 | 76 | 349 | 1.0 | 4.0 | 0.00 | 0.11 | 0.07 | 65 | 1016.1 |
| 20260503233302 | 77 | 320 | 1.0 | 4.0 | 0.00 | 0.11 | 0.07 | 65 | 1016.2 |
| 20260503232757 | 77 | 316 | 1.0 | 3.0 | 0.00 | 0.11 | 0.07 | 64 | 1016.0 |
| 20260503232259 | 77 | 320 | 2.0 | 9.0 | 0.00 | 0.11 | 0.07 | 63 | 1016.0 |
| 20260503232038 | 78 | 339 | 2.0 | 9.0 | 0.00 | 0.11 | 0.07 | 63 | 1016.0 |
| 20260503231354 | 78 | 326 | 1.0 | 5.0 | 0.00 | 0.11 | 0.07 | 62 | 1015.9 |
| 20260503230257 | 81 | 336 | 1.0 | 4.0 | 0.00 | 0.11 | 0.07 | 59 | 1015.8 |
| 20260503230238 | 81 | 6 | 1.0 | 6.0 | 0.00 | 0.11 | 0.07 | 59 | 1015.8 |
| 20260503225258 | 81 | 175 | 1.0 | 6.0 | 0.00 | 0.11 | 0.07 | 59 | 1015.8 |
| 20260503224753 | 82 | 332 | 1.0 | 5.0 | 0.00 | 0.11 | 0.07 | 57 | 1015.8 |
| 20260503224251 | 81 | 3 | 1.0 | 5.0 | 0.00 | 0.11 | 0.07 | 56 | 1015.9 |
| 20260503223752 | 82 | 13 | 1.0 | 5.0 | 0.00 | 0.12 | 0.07 | 54 | 1015.8 |
| 20260503223252 | 82 | 332 | 0.0 | 3.0 | 0.00 | 0.12 | 0.07 | 54 | 1015.8 |
| 20260503222753 | 82 | 150 | 0.0 | 2.0 | 0.00 | 0.12 | 0.07 | 57 | 1015.8 |
| 20260503222252 | 82 | 217 | 1.0 | 5.0 | 0.00 | 0.12 | 0.07 | 57 | 1015.8 |
| 20260503221752 | 82 | 80 | 2.0 | 5.0 | 0.00 | 0.13 | 0.07 | 55 | 1015.8 |
| 20260503221255 | 82 | 99 | 2.0 | 5.0 | 0.00 | 0.13 | 0.07 | 56 | 1015.8 |
| 20260503220752 | 83 | 91 | 1.0 | 5.0 | 0.00 | 0.13 | 0.07 | 53 | 1015.9 |
| 20260503220253 | 83 | 170 | 1.0 | 5.0 | 0.00 | 0.13 | 0.07 | 54 | 1016.0 |
| 20260503220018 | 83 | 229 | 1.0 | 5.0 | 0.00 | 0.14 | 0.07 | 57 | 1016.0 |
| 20260503215518 | 83 | 91 | 1.0 | 5.0 | 0.00 | 0.14 | 0.07 | 53 | 1015.9 |
| 20260503214751 | 83 | 24 | 1.0 | 6.0 | 0.00 | 0.15 | 0.07 | 53 | 1015.8 |
| 20260503214251 | 83 | 58 | 1.0 | 6.0 | 0.00 | 0.16 | 0.07 | 52 | 1015.8 |
| 20260503213751 | 82 | 92 | 2.0 | 6.0 | 0.00 | 0.17 | 0.07 | 54 | 1015.9 |
| 20260503213254 | 82 | 84 | 2.0 | 6.0 | 0.00 | 0.18 | 0.07 | 53 | 1016.0 |
| 20260503212751 | 83 | 80 | 1.0 | 4.0 | 0.00 | 0.18 | 0.07 | 54 | 1016.1 |
| 20260503212739 | 83 | 82 | 1.0 | 3.0 | 0.00 | 0.18 | 0.07 | 53 | 1016.0 |
| 20260503211753 | 82 | 307 | 1.0 | 3.0 | 0.00 | 0.19 | 0.07 | 55 | 1016.0 |
| 20260503211249 | 81 | 95 | 1.0 | 3.0 | 0.00 | 0.20 | 0.07 | 57 | 1016.1 |
| 20260503210749 | 79 | 278 | 2.0 | 6.0 | 0.00 | 0.21 | 0.07 | 59 | 1015.9 |
| 20260503210247 | 80 | 323 | 2.0 | 6.0 | 0.00 | 0.21 | 0.07 | 56 | 1016.1 |
| 20260503205747 | 81 | 42 | 1.0 | 6.0 | 0.00 | 0.22 | 0.07 | 55 | 1016.1 |
| 20260503205248 | 82 | 347 | 2.0 | 5.0 | 0.00 | 0.23 | 0.07 | 56 | 1016.2 |
| 20260503204747 | 81 | 78 | 2.0 | 5.0 | 0.00 | 0.24 | 0.07 | 55 | 1016.2 |
| 20260503204249 | 81 | 288 | 2.0 | 4.0 | 0.00 | 0.25 | 0.07 | 58 | 1016.3 |
| 20260503203735 | 81 | 351 | 1.0 | 4.0 | 0.00 | 0.26 | 0.07 | 56 | 1016.4 |
| 20260503203231 | 81 | 103 | 1.0 | 4.0 | 0.00 | 0.26 | 0.07 | 54 | 1016.5 |
| 20260503202723 | 82 | 287 | 1.0 | 4.0 | 0.00 | 0.27 | 0.07 | 53 | 1016.5 |
| 20260503202656 | 82 | 86 | 1.0 | 3.0 | 0.00 | 0.27 | 0.07 | 55 | 1016.5 |
| 20260503201704 | 82 | 135 | 1.0 | 6.0 | 0.00 | 0.27 | 0.07 | 55 | 1016.6 |
| 20260503201202 | 81 | 87 | 1.0 | 6.0 | 0.00 | 0.27 | 0.07 | 57 | 1016.6 |
| 20260503200923 | 81 | 162 | 2.0 | 5.0 | 0.00 | 0.27 | 0.07 | 57 | 1016.8 |
| 20260503200159 | 81 | 328 | 1.0 | 5.0 | 0.00 | 0.28 | 0.07 | 59 | 1016.8 |
| 20260503195700 | 80 | 100 | 2.0 | 6.0 | 0.00 | 0.28 | 0.07 | 59 | 1016.8 |
| 20260503195200 | 79 | 81 | 3.0 | 9.0 | 0.00 | 0.28 | 0.07 | 59 | 1016.9 |
| 20260503194659 | 79 | 129 | 4.0 | 9.0 | 0.00 | 0.28 | 0.07 | 58 | 1016.8 |
| 20260503194201 | 80 | 69 | 2.0 | 7.0 | 0.00 | 0.28 | 0.07 | 57 | 1016.9 |
| 20260503193700 | 80 | 70 | 1.0 | 5.0 | 0.00 | 0.28 | 0.07 | 58 | 1017.0 |
| 20260503193200 | 80 | 55 | 2.0 | 6.0 | 0.00 | 0.28 | 0.07 | 59 | 1017.0 |
| 20260503192659 | 79 | 345 | 2.0 | 6.0 | 0.00 | 0.28 | 0.07 | 59 | 1017.0 |
| 20260503192427 | 79 | 63 | 3.0 | 9.0 | 0.00 | 0.28 | 0.07 | 58 | 1017.2 |
| 20260503191704 | 78 | 55 | 4.0 | 10.0 | 0.00 | 0.34 | 0.07 | 61 | 1017.3 |
| 20260503191158 | 78 | 49 | 3.0 | 10.0 | 0.00 | 0.70 | 0.07 | 60 | 1017.3 |
| 20260503190644 | 80 | 72 | 2.0 | 7.0 | 0.00 | 0.99 | 0.07 | 59 | 1017.5 |
| 20260503190137 | 80 | 51 | 2.0 | 7.0 | 0.00 | 0.99 | 0.07 | 59 | 1017.5 |
| 20260503185902 | 79 | 335 | 2.0 | 9.0 | 0.00 | 0.99 | 0.07 | 60 | 1017.8 |
| 20260503185116 | 79 | 73 | 2.0 | 9.0 | 0.00 | 0.99 | 0.07 | 61 | 1018.0 |
| 20260503184609 | 80 | 68 | 1.0 | 4.0 | 0.00 | 0.99 | 0.07 | 61 | 1018.1 |
| 20260503184103 | 79 | 62 | 1.0 | 4.0 | 0.00 | 0.99 | 0.07 | 60 | 1018.3 |
| 20260503183550 | 78 | 48 | 1.0 | 6.0 | 0.00 | 0.99 | 0.07 | 62 | 1018.3 |
| 20260503183049 | 78 | 41 | 2.0 | 6.0 | 0.00 | 0.99 | 0.07 | 63 | 1018.4 |
| 20260503182545 | 78 | 82 | 2.0 | 6.0 | 0.00 | 0.99 | 0.07 | 64 | 1018.4 |
| 20260503182047 | 78 | 84 | 1.0 | 6.0 | 0.00 | 0.99 | 0.07 | 64 | 1018.5 |
| 20260503181546 | 77 | 80 | 2.0 | 8.0 | 0.00 | 0.99 | 0.07 | 65 | 1018.5 |
| 20260503181045 | 76 | 101 | 2.0 | 8.0 | 0.00 | 0.99 | 0.07 | 65 | 1018.5 |
| 20260503180545 | 77 | 95 | 2.0 | 8.0 | 0.00 | 0.99 | 0.07 | 66 | 1018.7 |
| 20260503180316 | 77 | 50 | 3.0 | 8.0 | 0.00 | 0.99 | 0.07 | 66 | 1018.7 |
| 20260503175548 | 77 | 74 | 3.0 | 8.0 | 0.00 | 0.99 | 0.07 | 65 | 1018.7 |
| 20260503175046 | 77 | 81 | 3.0 | 10.0 | 0.00 | 0.99 | 0.07 | 65 | 1018.7 |
| 20260503174545 | 76 | 79 | 3.0 | 10.0 | 0.00 | 0.99 | 0.07 | 66 | 1018.7 |
| 20260503174304 | 76 | 81 | 2.0 | 7.0 | 0.00 | 0.99 | 0.07 | 67 | 1018.7 |
| 20260503173550 | 76 | 93 | 3.0 | 8.0 | 0.00 | 0.99 | 0.07 | 65 | 1018.9 |
| 20260503173043 | 76 | 351 | 3.0 | 11.0 | 0.00 | 0.99 | 0.07 | 68 | 1018.9 |
| 20260503172543 | 76 | 64 | 3.0 | 11.0 | 0.00 | 0.99 | 0.07 | 67 | 1018.9 |
| 20260503172028 | 76 | 76 | 3.0 | 9.0 | 0.00 | 0.99 | 0.07 | 65 | 1019.0 |
| 20260503171522 | 76 | 75 | 3.0 | 9.0 | 0.00 | 0.99 | 0.07 | 67 | 1019.1 |
| 20260503171016 | 76 | 91 | 3.0 | 8.0 | 0.00 | 0.99 | 0.07 | 66 | 1019.2 |
| 20260503170503 | 75 | 73 | 4.0 | 10.0 | 0.00 | 0.99 | 0.07 | 66 | 1019.2 |
| 20260503160140 | 73 | 78 | 0.0 | 0.0 | 0.00 | 0.99 | 0.07 | 70 | 1019.4 |
| 20260503150856 | 70 | 22 | 0.0 | 4.0 | 0.00 | 0.99 | 0.07 | 73 | 1019.1 |
| 20260503150357 | 70 | 101 | 0.0 | 0.0 | 0.00 | 0.99 | 0.07 | 72 | 1019.3 |
| 20260503150124 | 70 | 107 | 0.0 | 0.0 | 0.00 | 0.99 | 0.07 | 73 | 1019.2 |
| 20260503131337 | 66 | 92 | 0.0 | 0.0 | 0.00 | 0.99 | 0.07 | 85 | 1018.5 |
| 20260503130838 | 66 | 43 | 0.0 | 0.0 | 0.00 | 0.99 | 0.07 | 85 | 1018.5 |
| 20260503130336 | 66 | 6 | 0.0 | 0.0 | 0.00 | 0.99 | 0.07 | 85 | 1018.4 |
| 20260503110816 | 65 | 42 | 0.0 | 0.0 | 0.00 | 0.99 | 0.07 | 88 | 1016.8 |
| 20260503110315 | 65 | 27 | 0.0 | 0.0 | 0.00 | 0.99 | 0.07 | 88 | 1016.8 |
| 20260503100227 | 65 | 41 | 0.0 | 0.0 | 0.00 | 0.99 | 0.07 | 88 | 1016.6 |
| 20260503081434 | 66 | 355 | 0.0 | 0.0 | 0.01 | 0.99 | 0.07 | 93 | 1016.0 |
| 20260503080927 | 66 | 289 | 0.0 | 0.0 | 0.01 | 0.99 | 0.07 | 93 | 1015.9 |
| 20260503080428 | 66 | 44 | 0.0 | 0.0 | 0.01 | 0.99 | 0.07 | 94 | 1015.9 |